Regional Weather Roundup
Issued by NWS

Home | Current Version | Previous Version | Graphics & Text | Print | Product List | Glossary On
Versions: 1 2 3 4 5 6 7 8 9 10 11 12 13 14 15 16 17 18 19 20 21 22 23 24 25 26 27 28 29 30 31 32 33 34 35 36 37 38 39 40 41 42 43 44 45 46 47 48 49 50
000
ASUS43 KDMX 040203
RWRIA

WEATHER ROUNDUP FOR IOWA
NATIONAL WEATHER SERVICE DES MOINES IA
900 PM CDT TUE MAY 03 2016

NOTE: "FAIR" INDICATES FEW OR NO CLOUDS BELOW 12,000 FEET WITH NO
SIGNIFICANT WEATHER AND/OR OBSTRUCTIONS TO VISIBILITY.

* - THESE STATIONS ARE NOT NWS STATIONS...THUS NOT UNDER NWS
QUALITY CONTROL.  THEY ALSO DO NOT REPORT WEATHER SUCH
AS PRECIPITATION OR FOG.

IAZ001>003-012>014-020>022-031>034-043>046-040300-
   NORTHWEST IOWA

CITY           SKY/WX    TMP DP  RH WIND       PRES   REMARKS
CARROLL *      MOCLDY    61  46  59 W15       29.80F
CHEROKEE *     PTCLDY    61  47  60 W12       29.80S
DENISON *      CLEAR     61  45  55 W8        29.82F
LE MARS *      MOCLDY    63  46  55 W7        29.82S
ORANGE CITY *  PTCLDY    63  48  59 W18       29.81R
SHELDON *      CLEAR     61  37  41 N12G18    29.81R
SIOUX CITY     CLEAR     60  47  61 W9        29.83F
SPENCER        MOCLDY    62  37  39 NW10      29.80R
STORM LAKE *   PTCLDY    61  46  59 W12       29.80S
$$

IAZ055>058-069>071-079>083-090>094-040300-
   SOUTHWEST IOWA

CITY           SKY/WX    TMP DP  RH WIND       PRES   REMARKS
ATLANTIC *     CLEAR     59  45  58 W6        29.86F
AUDUBON *      CLEAR     57  46  67 CALM      29.85F
CLARINDA *       N/A    N/A N/A N/A MISG        N/A
COUNCIL BLFS * CLEAR     63  43  48 W8        29.89S
CRESTON *      MOCLDY    57  46  67 W9        29.88S
HARLAN  *      CLEAR     59  45  58 W8        29.89F
LAMONI         PTCLDY    58  44  60 SW9       29.87F
RED OAK *      CLEAR     61  45  55 W6        29.89S
SHENANDOAH *   CLEAR     61  48  63 SW5       29.90S
$$

IAZ047>049-059>061-072>074-084-040300-
   CENTRAL IOWA

CITY           SKY/WX    TMP DP  RH WIND       PRES   REMARKS
AMES           PTCLDY    57  46  66 W8        29.78F
ANKENY *       PTCLDY    61  46  59 W7        29.80F
BOONE *        PTCLDY    61  45  55 W12       29.77F
CHARITON *     MOCLDY    59  45  58 SW9       29.84F
DES MOINES     PTCLDY    59  43  55 SW8       29.81F
GRINNELL*      MOCLDY    59  45  58 SW9       29.80F
KNOXVILLE *    MOCLDY    61  45  55 SW9       29.80F
MARSHALLTOWN   PTCLDY    59  45  59 W13       29.75F
NEWTON *       MOCLDY    59  45  58 SW6       29.79F
PELLA *        CLEAR     60  44  55 SW6       29.81F
PERRY *          N/A     59  48  67 W12       29.81F
$$

IAZ004>006-015-016-023>025-035-036-040300-
   NORTH CENTRAL IOWA

CITY           SKY/WX    TMP DP  RH WIND       PRES   REMARKS
ALGONA *       CLOUDY    64  46  52 W25       29.75R
CLARION *      CLOUDY    63  48  59 W14       29.74F
ESTHERVILLE    CLEAR     60  33  36 NW18      29.77R
FORT DODGE *   PTCLDY    61  45  55 W13       29.77F
MASON CITY     CLOUDY    62  47  57 W10       29.72F
FOREST CITY *  CLOUDY    61  43  51 W12       29.72R
WEBSTER CITY * CLOUDY    61  46  59 W15       29.74F
IOWA FALLS *     N/A     61  46  59 SW15      29.76F
$$

IAZ007>011-017>019-026>030-037>042-050>054-066-040300-
   NORTHEAST IOWA

CITY           SKY/WX    TMP DP  RH WIND       PRES   REMARKS
CEDAR RAPIDS   MOCLDY    60  46  59 SW13      29.74F
CHARLES CITY * CLOUDY    63  45  51 SW16      29.69F
CLINTON *      CLOUDY    56  45  66 SW10      29.76F
DECORAH *      CLOUDY    63  45  51 NW9       29.66F
DUBUQUE        CLOUDY    56  44  64 SW7       29.71F
MONTICELLO *   CLOUDY    61  45  55 SW10      29.72F
OELWEIN *      MOCLDY    61  46  59 W12       29.71F
WATERLOO       PTCLDY    62  44  51 W12       29.71
$$

IAZ064-065-067-068-078-040300-
   EAST CENTRAL IOWA

CITY           SKY/WX    TMP DP  RH WIND       PRES   REMARKS
DAVENPORT      CLOUDY    60  41  49 SW13      29.77F
IOWA CITY      CLOUDY    61  44  53 SW8       29.79F
MT. PLEASANT * MOCLDY    59  46  63 SW9       29.83F
MUSCATINE *    CLOUDY    63  43  48 SW12      29.79F
QUAD CITIES      N/A     62  41  46 SW10      29.77F
$$

IAZ062-063-075>077-085>089-095>099-040300-
   SOUTHEAST IOWA

CITY           SKY/WX    TMP DP  RH WIND       PRES   REMARKS
BURLINGTON     CLOUDY    57  47  69 SW7       29.82F
FAIRFIELD *    CLOUDY    61  43  51 SW8       29.81F
FORT MADISON * MOCLDY    61  43  51 SW8       29.84F
KEOKUK *       MOCLDY    57  43  58 SW7       29.84F
OSKALOOSA *    MOCLDY    59  45  58 SW9       29.82F
OTTUMWA        MOCLDY    58  45  62 SW8       29.81F
WASHINGTON *   CLOUDY    61  46  59 SW10      29.81F
$$

ABBREVIATIONS USED IN REMARKS
   TC - TEMPERATURES IN CELSIUS
  WCI - WIND CHILL INDEX
   HX - HEAT INDEX
  VSB - VISIBILITY
$$





USA.gov is the U.S. government's official web portal to all federal, state and local government web resources and services.